#timestamp,LO_Frequency,Hit,StdDev 
1696860015.7,286047000.1,P
1696860035.5,286047000.0,N
1696860055.4,286047000.4,N
1696860075.2,286046999.7,N
1696860095.1,286047002.0,N
1696860096.0,286047002.0,N
1696860115.8,286047002.2,N
1696860135.6,286047002.5,N
1696860155.5,286047002.4,N
1696860175.3,286047001.5,N
1696860195.2,286047002.7,N
1696860215.9,286047000.2,N
1696860235.7,286047000.3,N
1696860255.6,286047000.7,N
1696860275.4,286047000.9,N
1696860295.2,286047000.0,N
1696860315.1,286047001.0,N
1696860316.0,286047001.0,N
1696860335.8,286047000.4,N
1696860355.7,286047002.7,N
1696860375.5,286047002.2,N
1696860395.4,286047002.6,N
1696860415.2,286047002.1,N
1696860435.0,286047000.0,N
1696860435.9,286047000.0,N
1696860455.8,286047002.7,N
1696860475.6,286047000.2,N
1696860495.4,286046999.7,N
1696860515.3,286046999.8,N
1696860535.1,286046999.7,N
1696860555.9,286046999.8,N
1696860575.7,286047000.3,N
1696860595.5,286047002.6,N
1696860615.4,286047002.6,N
1696860635.2,286047002.2,N
1696860655.0,286047002.2,N
1696860656.0,286047002.2,N
1696860675.8,286047002.5,N
1696860695.6,286047002.7,N
1696860715.5,286047001.4,N
1696860735.3,286047002.0,N
1696860755.1,286047001.8,N
1696860775.9,286047002.1,N
1696860795.7,286047002.3,N
1696860815.6,286047002.4,N
1696860835.4,286047002.1,N
1696860855.2,286047001.9,N
1696860875.1,286047004.0,Y
1696860876.0,286047004.0,P
1696860895.8,286047002.7,N
1696860915.6,286046999.7,N
1696860935.5,286046999.9,N
1696860955.3,286047000.0,N
1696860975.2,286047002.4,N
1696860995.9,286047000.1,N
1696861015.7,286047002.7,N
1696861035.6,286047000.4,N
1696861055.4,286047000.0,N
1696861075.2,286046999.9,N
1696861095.1,286047002.3,N
1696861096.0,286047002.3,N
1696861115.8,286047002.6,N
1696861135.7,286047002.3,N
1696861155.5,286047002.7,N
1696861175.3,286047002.5,N
1696861195.2,286047000.6,N
1696861215.0,286046999.9,N
1696861215.9,286046999.9,N
1696861235.8,286047000.6,N
1696861255.6,286046999.9,N
1696861275.4,286047001.0,N
1696861295.3,286047000.2,N
1696861315.1,286047000.0,N
1696861335.8,286046998.2,N
1696861355.7,286047001.2,N
1696861405.5,286046998.6,E
1696861415.5,286047001.2,N
1696861435.3,286047000.3,P
1696861455.1,286047002.0,P
1696861475.9,286047002.6,Y
1696861495.7,286047001.0,P
1696861515.6,286047001.2,P
1696861535.4,286047001.0,P
1696861555.2,286047002.4,Y
1696861575.1,286047000.3,P
1696861576.0,286047000.3,N
1696861595.8,286047000.5,N
1696861615.7,286046998.6,Y
1696861635.5,286046998.7,P
1696861655.3,286046999.3,N
1696861675.2,286046996.6,P
1696861695.9,286046998.5,N
1696861715.7,286047000.4,N
1696861735.6,286047000.2,N
1696861755.4,286047000.0,N
1696861775.2,286047000.8,N
1696861795.1,286047001.2,N
1696861796.0,286047001.2,N
1696861815.8,286046998.7,N
1696861835.7,286046999.3,N
1696861855.5,286046998.2,N
1696861875.3,286046999.2,N
1696861895.2,286046998.7,N
1696861915.0,286046998.1,N
1696861915.9,286046998.1,N
1696861935.7,286046998.1,N
1696861955.6,286047001.0,N
1696861975.4,286047000.6,N
1696861995.3,286046998.5,N
1696862015.1,286047000.9,N
1696862016.0,286047000.9,N
1696862035.8,286047001.0,N
1696862055.7,286046999.9,N
1696862075.5,286047000.7,N
1696862095.3,286047001.2,N
1696862115.2,286047001.0,N
1696862135.0,286047001.0,N
1696862135.9,286047001.0,N
1696862155.8,286047000.9,N
1696862175.6,286046998.1,N
1696862195.4,286047000.7,N
1696862215.3,286047000.0,N
1696862235.1,286047000.9,N
1696862255.8,286046999.9,N
1696862275.7,286047000.5,N
1696862295.5,286046999.8,N
1696862315.4,286047000.1,N
1696862335.2,286047002.6,N
1696862355.0,286047000.5,N
1696862355.9,286047000.5,N
1696862375.8,286047000.2,N
1696862395.6,286046999.8,N
1696862415.4,286046999.9,N
1696862435.3,286047002.7,N
1696862455.1,286047002.8,N
1696862475.9,286047002.4,N
1696862495.7,286047000.2,N
1696862515.5,286047000.2,N
1696862535.4,286047001.8,N
1696862555.2,286047002.2,N
1696862575.0,286047000.1,N
1696862576.0,286047000.1,N
1696862595.8,286047002.4,N
1696862615.6,286046999.7,N
1696862635.5,286047002.2,N
1696862655.3,286047001.6,N
1696862675.1,286047002.0,N
1696862695.9,286047001.5,N
1696862715.7,286047002.2,N
1696862735.6,286047002.8,N
1696862755.4,286047000.3,N
1696862775.2,286047002.4,N
1696862795.1,286047002.3,N
1696862796.0,286047002.3,N
1696862815.8,286047000.0,N
1696862835.7,286047000.3,N
1696862855.5,286047000.9,N
1696862875.3,286047000.0,N
1696862895.2,286046999.8,N
1696862915.0,286047001.0,N
1696862915.9,286047001.0,N
1696862935.8,286047000.1,N
1696862955.6,286047000.2,N
1696862975.4,286047002.8,N
1696862995.3,286047002.3,N
1696863015.1,286046999.8,N
1696863035.8,286047002.5,N
1696863055.7,286047002.1,N
1696863075.5,286047002.5,N
1696863095.4,286047002.5,N
1696863115.2,286047002.2,N
1696863135.0,286047002.2,N
1696863135.9,286047002.2,N
1696863155.8,286047002.5,N
1696863175.6,286047002.1,N
1696863195.5,286047002.1,N
1696863215.3,286047002.0,N
1696863235.1,286047001.6,N
1696863255.9,286047002.0,N
1696863275.7,286047001.8,N
1696863295.6,286047002.3,N
1696863315.4,286047002.7,N
1696863335.2,286047002.4,N
1696863355.1,286047002.7,N
1696863356.0,286047002.7,N
1696863375.8,286047002.4,N
1696863395.7,286047000.0,N
1696863415.5,286047001.0,N
1696863435.3,286047002.7,N
1696863455.2,286047000.4,N
1696863475.0,286047001.2,N
1696863475.9,286047001.2,N
1696863495.7,286046999.1,N
1696863515.6,286046998.7,N
1696863535.4,286046996.7,Y
1696863555.3,286046995.7,P
1696863575.1,286046995.2,N
1696863595.8,286046996.1,N
